Wind_Speed
13 13 13 12 13 15 16 16 16 16 16 17 18 18 19 20 20 21 21 22 22 22 23 24 25 25 26 27 27 28 29 29 29 29 29 30 30 31 32 32 32 32
14 15 14 14 16 17 17 17 16 16 16 17 18 18 19 20 20 21 22 22 23 23 24 25 26 26 27 27 27 28 28 29 29 29 29 29 30 30 31 31 31 31
16 16 16 16 17 17 17 17 16 16 17 17 17 18 19 20 21 22 23 24 25 25 26 26 27 27 27 27 27 28 28 28 29 29 29 29 29 29 30 30 30 30
17 17 17 17 18 17 17 17 16 17 17 17 18 18 20 21 22 23 24 25 26 27 27 27 27 27 27 27 27 27 28 28 28 28 29 29 29 29 29 29 30 30
18 18 18 18 18 17 17 17 16 16 17 17 18 19 21 22 23 24 25 26 27 27 28 28 27 27 26 26 27 27 28 28 28 28 28 28 28 29 29 30 30 30
18 19 19 18 18 17 17 17 17 16 17 18 19 20 22 23 24 25 26 27 27 28 28 27 27 27 27 27 27 27 27 27 27 27 27 28 29 29 30 30 30 31
18 19 19 18 18 17 18 17 17 17 18 19 20 21 23 24 25 26 26 27 28 28 28 27 27 27 27 27 27 27 27 27 27 27 28 29 30 30 31 31 31 31
19 20 19 18 18 18 18 18 18 19 19 20 21 22 24 25 25 26 27 28 28 28 27 27 27 27 27 26 26 27 27 27 28 29 30 30 31 31 31 31 31 30
20 20 18 18 18 18 19 19 19 20 21 22 23 24 25 25 26 27 28 28 28 28 27 27 27 27 27 27 27 27 28 29 30 31 31 31 31 30 30 29 29 29
19 18 18 18 19 19 20 20 21 22 23 24 24 25 26 27 27 28 28 28 28 27 27 27 27 27 27 27 27 28 29 30 31 32 32 31 29 28 27 27 27 28
18 18 19 20 20 20 21 21 22 23 24 25 26 27 27 27 28 29 29 28 27 27 28 28 28 27 27 27 28 29 30 31 32 32 30 28 27 26 26 27 27 28
18 19 20 20 21 21 21 22 23 25 26 27 27 28 28 28 28 29 29 28 27 28 28 28 28 27 27 27 28 29 30 31 31 29 27 26 25 26 27 28 29 30
19 20 20 21 22 22 23 24 25 27 28 28 28 29 28 28 29 29 29 28 28 28 28 27 27 27 27 28 28 29 30 29 28 26 25 26 26 27 28 29 29 30
20 21 21 22 23 24 25 26 27 28 29 29 29 30 29 29 30 30 28 28 28 28 27 27 26 27 27 28 28 28 27 26 26 26 26 27 28 28 29 30 30 30
22 22 23 24 24 25 26 28 29 30 30 30 30 31 30 30 30 30 28 28 27 27 26 26 26 26 27 27 27 26 26 26 27 28 28 29 30 30 31 31 31 31
24 25 26 26 26 26 27 29 30 31 31 31 31 31 31 31 30 29 28 27 27 26 26 26 26 26 26 26 26 26 27 27 28 29 30 31 31 32 32 32 33 33
26 27 28 29 29 29 29 30 31 32 32 33 33 33 32 31 31 29 28 27 27 26 26 26 26 26 25 26 26 27 28 29 30 30 31 32 32 33 33 34 34 34
27 29 30 31 31 31 31 31 32 33 33 33 34 34 33 32 30 29 28 27 27 27 26 26 25 25 26 26 27 28 29 30 31 31 32 32 33 33 34 34 34 34
27 29 30 32 32 32 32 32 33 33 34 34 35 35 34 31 30 29 28 27 27 27 26 25 25 25 26 27 28 29 30 30 31 31 32 32 33 33 34 34 34 33
27 29 30 31 32 32 32 33 34 34 35 35 35 35 33 31 30 29 28 28 28 27 26 25 25 26 27 28 29 30 30 30 31 31 32 33 33 33 33 33 33 33
28 28 28 28 29 30 32 33 34 35 35 35 35 34 32 30 29 29 28 28 28 27 26 25 25 26 28 29 29 30 30 30 31 31 32 33 33 33 33 33 33 33
28 27 27 27 27 29 32 34 35 36 35 35 34 32 31 30 29 29 28 29 28 27 26 26 26 27 28 29 29 29 30 30 31 32 32 33 32 32 32 33 33 33
29 28 27 27 28 30 32 34 36 37 35 34 32 30 29 29 29 29 29 29 28 26 26 26 27 28 28 29 29 29 29 30 31 32 32 32 32 32 32 32 32 32
29 28 27 26 28 31 33 36 38 37 34 32 30 28 29 30 29 29 29 28 27 26 26 26 27 28 28 28 28 28 29 30 31 31 31 31 31 31 31 31 31 31
29 27 26 26 28 31 34 38 39 35 31 30 28 27 28 30 30 29 29 27 26 26 26 26 27 27 27 27 27 28 29 30 30 30 30 30 30 30 30 30 29 29
28 27 26 27 29 32 37 40 37 32 30 29 27 27 29 30 30 29 28 26 26 26 26 26 27 27 27 26 26 27 28 29 29 29 29 29 29 29 29 29 29 29
Wind_Direction
245 250 256 261 266 270 274 277 280 283 287 289 291 294 298 302 306 308 309 309 310 312 313 314 313 313 314 314 314 313 313 313 311 311 310 309 310 310 311 312 313 314
251 256 260 263 267 271 275 277 280 284 288 290 293 298 302 306 309 310 310 310 311 312 313 313 312 312 311 311 312 311 311 311 310 309 308 308 309 309 310 311 312 313
255 258 260 263 267 271 275 278 283 286 288 292 297 302 306 309 311 311 311 311 311 311 311 311 310 310 309 309 309 309 309 308 308 307 307 307 308 308 309 310 311 312
256 258 261 264 267 271 276 280 284 288 291 297 302 306 309 311 312 312 312 311 310 310 309 309 308 307 307 307 307 307 307 306 306 305 305 306 306 307 308 309 310 311
257 260 263 266 270 275 279 282 287 291 296 301 306 309 312 313 313 313 312 310 309 308 308 307 306 305 304 305 305 306 305 305 304 304 304 305 305 306 307 308 309 310
257 261 265 269 274 278 281 285 289 294 299 304 307 311 312 313 314 313 312 311 309 308 307 306 304 304 304 305 305 305 304 303 302 302 303 303 304 305 306 307 308 308
258 262 267 272 276 279 283 288 292 297 301 304 307 310 312 313 313 313 313 312 310 309 307 305 304 304 305 305 305 304 303 302 301 302 302 303 304 305 306 307 308 309
260 264 269 274 278 283 287 292 295 298 301 303 305 308 310 312 313 314 313 312 311 309 306 306 305 305 305 304 304 303 302 301 301 302 302 303 304 305 306 308 309 311
261 265 271 276 281 285 289 292 296 298 300 302 304 306 309 312 314 315 314 312 310 309 307 307 306 306 304 303 303 302 302 302 302 302 302 303 305 306 308 310 311 313
263 268 274 278 282 286 289 293 296 297 299 301 303 306 309 311 314 314 313 312 311 310 308 307 306 305 304 303 303 303 303 303 303 302 303 304 307 309 310 312 313 314
268 273 277 280 283 287 290 292 294 295 297 299 302 304 307 310 313 314 313 313 312 311 309 307 305 304 304 304 304 304 303 303 302 303 304 306 309 311 312 313 313 313
273 276 279 281 284 286 288 290 291 293 295 297 299 302 305 309 312 314 313 312 311 310 308 306 304 304 304 304 304 304 303 303 303 304 306 308 310 312 312 313 312 312
276 279 281 283 285 287 287 288 288 290 292 294 297 300 304 309 312 313 312 311 310 309 307 306 305 304 305 305 305 305 304 304 304 305 307 309 311 312 312 312 311 310
276 278 280 282 284 286 286 286 286 287 290 293 296 299 304 309 311 312 311 309 309 308 307 306 306 306 306 306 306 306 305 305 306 308 310 311 312 312 312 311 311 310
273 276 279 281 283 284 284 284 284 286 289 292 295 299 303 307 310 310 309 309 309 308 307 307 308 308 308 308 307 307 307 308 310 312 313 314 314 313 312 311 311 310
271 274 278 280 282 283 283 282 283 285 287 290 293 297 301 306 308 308 308 308 308 308 308 308 309 309 309 308 309 309 310 312 313 314 314 314 314 313 312 312 311 311
271 275 278 279 280 281 281 280 281 283 285 288 291 294 298 304 306 306 307 308 308 309 309 309 308 308 308 309 310 311 312 313 314 314 314 314 313 313 313 313 313 313
273 276 277 278 278 278 277 277 278 280 282 285 287 291 297 302 304 304 305 306 308 308 308 308 308 308 309 310 311 312 313 314 314 315 314 314 314 314 314 314 314 315
275 276 277 277 276 274 273 274 275 276 278 281 284 288 295 300 302 301 303 305 307 307 307 307 307 308 310 311 312 313 314 315 315 315 315 315 315 315 315 315 315 316
275 276 277 275 273 271 269 269 270 271 274 277 280 286 293 297 299 299 301 304 305 305 305 305 306 308 309 311 313 314 315 316 315 315 316 316 316 316 316 316 317 318
274 275 275 272 271 269 267 266 266 267 269 272 276 284 291 295 296 298 300 302 303 303 303 303 305 307 310 312 314 315 315 316 316 317 317 317 317 317 318 319 319 320
275 276 274 272 270 268 265 263 262 262 264 268 274 284 290 293 295 297 298 299 301 301 300 302 304 308 311 313 314 315 316 316 317 318 318 318 318 319 320 321 320 320
275 275 274 272 269 267 263 260 259 259 261 266 275 284 288 291 294 296 296 297 298 299 299 300 304 308 312 314 315 316 316 317 318 319 319 319 320 321 321 321 320 319
274 274 273 271 268 264 260 257 256 256 260 268 277 284 287 290 293 293 294 295 297 297 298 301 305 310 312 313 314 315 316 318 319 319 319 320 320 321 321 320 320 320
274 274 273 271 267 262 258 256 254 255 262 272 278 283 286 289 291 291 292 294 296 298 299 303 307 310 312 313 313 315 317 319 319 319 320 320 319 320 320 321 321 321
276 274 272 271 266 260 257 256 254 257 266 274 279 283 286 288 290 290 290 292 296 299 301 304 308 310 310 311 313 316 318 319 319 319 319 319 319 319 320 321 322 322
Height
5809 5809 5810 5810 5811 5811 5811 5812 5812 5811 5811 5811 5810 5810 5809 5808 5807 5806 5805 5804 5803 5802 5800 5799 5798 5796 5795 5793 5791 5789 5788 5786 5784 5782 5780 5779 5777 5775 5773 5771 5768 5766
5807 5808 5808 5809 5809 5809 5810 5810 5810 5809 5809 5809 5808 5808 5807 5806 5805 5804 5803 5802 5801 5799 5798 5797 5795 5794 5792 5791 5789 5787 5785 5784 5782 5780 5778 5776 5774 5772 5770 5768 5766 5764
5806 5806 5807 5807 5808 5808 5808 5808 5808 5808 5807 5807 5806 5806 5805 5804 5803 5802 5801 5800 5798 5797 5796 5794 5793 5791 5790 5788 5787 5785 5783 5781 5779 5778 5776 5774 5772 5770 5768 5766 5763 5761
5805 5805 5806 5806 5806 5806 5806 5806 5806 5806 5805 5805 5804 5804 5803 5802 5801 5800 5799 5797 5796 5795 5794 5792 5791 5789 5788 5786 5784 5783 5781 5779 5777 5775 5774 5772 5770 5768 5766 5763 5761 5759
5803 5804 5804 5804 5804 5805 5805 5804 5804 5804 5804 5803 5802 5802 5801 5800 5799 5798 5797 5795 5794 5793 5791 5790 5788 5787 5785 5784 5782 5780 5779 5777 5775 5773 5771 5769 5767 5765 5763 5761 5759 5756
5802 5802 5802 5803 5803 5803 5803 5803 5803 5802 5802 5801 5800 5800 5799 5798 5797 5796 5795 5793 5792 5790 5789 5787 5786 5784 5783 5781 5780 5778 5776 5775 5773 5771 5769 5767 5765 5763 5761 5758 5756 5754
5800 5800 5801 5801 5801 5801 5801 5801 5801 5800 5800 5799 5799 5798 5797 5796 5795 5794 5792 5791 5789 5788 5786 5785 5783 5782 5780 5779 5777 5776 5774 5772 5770 5769 5767 5765 5762 5760 5758 5755 5753 5751
5798 5799 5799 5800 5799 5799 5799 5799 5799 5798 5798 5797 5797 5796 5795 5794 5793 5791 5790 5788 5787 5785 5784 5782 5781 5779 5778 5776 5775 5773 5771 5770 5768 5766 5764 5762 5759 5757 5754 5752 5750 5747
5797 5797 5797 5797 5797 5797 5797 5797 5797 5796 5796 5795 5795 5794 5793 5792 5791 5789 5787 5786 5784 5783 5781 5780 5778 5777 5775 5773 5772 5770 5768 5767 5765 5763 5761 5759 5756 5754 5751 5749 5746 5744
5795 5795 5795 5795 5795 5795 5795 5795 5794 5794 5793 5793 5792 5791 5791 5789 5788 5786 5785 5783 5782 5780 5779 5777 5775 5774 5772 5771 5769 5767 5766 5764 5762 5760 5758 5756 5753 5751 5748 5746 5744 5742
5793 5793 5793 5793 5793 5793 5793 5793 5792 5791 5791 5790 5790 5789 5788 5787 5785 5784 5782 5780 5779 5777 5776 5774 5773 5771 5770 5768 5766 5765 5763 5761 5759 5757 5755 5752 5750 5748 5746 5743 5741 5739
5791 5791 5791 5791 5791 5791 5791 5790 5790 5789 5788 5788 5787 5786 5786 5784 5783 5781 5780 5778 5776 5775 5773 5772 5770 5768 5767 5765 5763 5762 5760 5758 5756 5754 5752 5750 5748 5746 5743 5741 5739 5737
5789 5789 5789 5789 5789 5789 5789 5788 5787 5787 5786 5786 5785 5784 5783 5782 5781 5779 5777 5776 5774 5772 5771 5769 5767 5766 5764 5762 5761 5759 5757 5755 5753 5751 5749 5747 5745 5743 5741 5739 5737 5734
5787 5787 5787 5787 5787 5787 5786 5786 5785 5784 5784 5783 5782 5781 5781 5780 5778 5777 5775 5773 5772 5770 5768 5766 5764 5763 5761 5759 5757 5756 5754 5752 5750 5748 5746 5744 5742 5740 5738 5736 5734 5732
5785 5785 5785 5785 5784 5784 5784 5783 5782 5782 5781 5780 5780 5779 5778 5777 5776 5774 5772 5771 5769 5767 5765 5763 5761 5760 5758 5756 5755 5753 5751 5749 5747 5745 5743 5741 5739 5737 5735 5733 5731 5729
5782 5783 5782 5782 5781 5781 5781 5780 5779 5779 5778 5778 5777 5776 5775 5774 5773 5771 5770 5768 5766 5764 5762 5760 5759 5757 5755 5753 5752 5750 5748 5746 5744 5742 5740 5738 5736 5733 5731 5729 5727 5725
5779 5779 5779 5778 5778 5778 5777 5777 5776 5776 5775 5775 5774 5773 5772 5771 5770 5769 5767 5765 5763 5761 5759 5758 5756 5754 5752 5751 5749 5747 5745 5743 5741 5739 5737 5735 5733 5730 5728 5726 5724 5721
5776 5776 5775 5775 5774 5774 5774 5773 5773 5773 5772 5772 5771 5770 5770 5769 5767 5766 5764 5763 5761 5759 5757 5755 5753 5751 5750 5748 5746 5745 5743 5740 5738 5736 5734 5732 5730 5727 5725 5723 5720 5718
5772 5772 5772 5771 5771 5771 5770 5770 5770 5770 5769 5769 5768 5767 5767 5766 5765 5763 5762 5760 5758 5756 5754 5752 5750 5749 5747 5745 5744 5742 5740 5738 5735 5733 5731 5729 5727 5725 5722 5720 5717 5714
5769 5768 5768 5767 5767 5767 5767 5767 5766 5766 5766 5765 5765 5764 5764 5763 5762 5760 5759 5757 5755 5753 5751 5749 5748 5746 5744 5743 5741 5739 5737 5735 5733 5731 5728 5726 5724 5722 5719 5717 5714 5712
5765 5765 5764 5764 5763 5763 5763 5763 5763 5763 5762 5762 5762 5762 5761 5760 5759 5757 5756 5754 5752 5750 5749 5747 5745 5743 5742 5740 5738 5736 5734 5732 5730 5728 5726 5723 5721 5719 5716 5714 5711 5709
5761 5761 5761 5760 5760 5759 5759 5759 5759 5759 5759 5758 5759 5759 5758 5757 5755 5754 5753 5751 5749 5748 5746 5744 5743 5741 5739 5737 5735 5734 5732 5730 5727 5725 5723 5721 5718 5716 5714 5711 5709 5706
5758 5758 5757 5756 5756 5756 5755 5755 5755 5755 5755 5755 5756 5755 5754 5754 5752 5751 5750 5748 5746 5745 5743 5741 5740 5738 5736 5735 5733 5731 5729 5727 5725 5723 5720 5718 5716 5714 5711 5709 5707 5704
5754 5754 5753 5753 5752 5752 5752 5751 5751 5751 5751 5752 5753 5752 5751 5751 5749 5748 5747 5745 5744 5742 5740 5739 5737 5735 5734 5732 5730 5729 5727 5725 5723 5720 5718 5716 5714 5712 5709 5707 5705 5702
5750 5750 5749 5749 5749 5748 5748 5747 5747 5748 5749 5750 5749 5749 5748 5748 5746 5745 5744 5742 5741 5739 5737 5736 5734 5733 5731 5730 5728 5726 5724 5723 5720 5718 5716 5714 5712 5710 5708 5705 5703 5701
5746 5746 5745 5745 5745 5745 5744 5743 5744 5746 5747 5747 5746 5746 5745 5744 5743 5742 5741 5739 5738 5736 5735 5733 5732 5730 5729 5727 5726 5724 5722 5720 5718 5716 5714 5712 5710 5708 5706 5703 5701 5699